Погода в Оренбурге

Погода в Оренбурге : погода сейчас, прогноз погоды и архив. Всё, что Вы хотите узнать о погоде в Оренбурге!

Хотите узнать прогноз погоды в Оренбурге? Тогда Вам сюда: Погода в Оренбурге

Поиск расширенной информации на нашем сайте:

Другие новости

Новости СМИ2

Главная страница сайта

Новости сайта

03.07.2017

Напоминаем, что на нашем специализированном сайте Метеоцентр.Азия вы можете получить высокодетализированные автоматические прогнозы погоды по пунктам России, СНГ и мира в авиационном формате (включающие направление и скорость ветра, видимость, явления погоды, количество и форму облачности, нижнюю и верхнюю границу облачности).


Погода в Оренбурге - сегодня

Время (UTC), дата Ветер
(°,м/с) 
Видим.   Явления Облачность Т
(°С)
Тd
(°С)
f(%) Тe
(°С)
Pmin
(гПа)
dP
(гПа)
Po
(мм)
O2
(г/м3)
Тmin Tmax R s Состояние
почвы
09 13.01.18 340 (С) 20000 м    ясно 
-18.1 -22.2 70 -22  1036.9  0.3  766  332           
12 13.01.18 330 (СЗ) 20000 м    ясно 
-19.4 -23.3 71 -24  1037.5  0.5  766  334           
15 13.01.18 тихо ()   20000 м    ясно 
-22.7 -24.5 85 -23  1038.5  0.8  767  339    -17.6       
18 13.01.18 270 (З) 20000 м    ясно 
-25 -27.4 80 -26  1039.1  0.4  767  342           
21 13.01.18 260 (З) 20000 м  [диам. изморози 1 мм]  ясно 
-25.9 -28.3 80 -26  1038.9  -0.2  767  343           
00 14.01.18 290 (З) 20000 м  [диам. изморози 3 мм]  ясно 
-27.8 -30.4 78 -28  1038.9  0.1  767  346           
03 14.01.18 210 (ЮЗ) 20000 м  [диам. изморози 4 мм]  3/0 средняя 
[Ac trans]
-28.3 -31.1 77 -29  1038.5  -0.4  766  346  -29.4      равномерный
сухой снег
100% 
06 14.01.18 тихо ()   20000 м  [диам. изморози 4 мм]  4/0 верхняя 
[Ci fib]
-26.6 -29.3 78 -27  1038.6  0.2  766  344  -29.5         
09 14.01.18 300 (СЗ) 20000 м  [диам. изморози 4 мм]  6/0 средняя, верхняя 
[Ac lent|Ci fib]
-21.4 -23.8 81 -22  1037.9  -0.4  766  337           
12 14.01.18 220 (ЮЗ) 20000 м    1/0 средняя 
[Ac lent]
-20.7 -24.1 74 -24  1037.7  -0.2  766  336           
15 14.01.18 180 (Ю) 20000 м    3/0 верхняя 
[Ci fib]
-24.3 -26.5 82 -25  1038  -0.1  766  341    -19.9       
18 14.01.18 240 (ЮЗ) 20000 м    3/0 верхняя 
[Ci fib]
-23.1 -25.5 81 -26  1038.6  0.7  767  339           
21 14.01.18 280 (З) 20000 м    10/10 240 м 
[Sc]
-21.6 -23.9 82 -22  1038.6  0.1  767  337           
00 15.01.18 230 (ЮЗ) 20000 м  снежные кристаллы  10/10 240 м 
[Frnb]
-20.6 -22.6 84 -23  1038.9  0.4  767  336           
03 15.01.18 250 (З) 4000 м  слаб. снег  10/10 300 м 
[Frnb]
-19.7 -21.6 85 -22  1039.2  0.4  767  335  -24.3    0.0  равномерный
сухой снег
100% 
06 15.01.18 270 (З) 4000 м  слаб. снег  10/10 300 м 
[Frnb]
-18.4 -20.2 86 -21  1039.6  0.5  768  333           
09 15.01.18 270 (З) 20000 м  {снег}  3/3 600 м 
[Sc]
-15.1 -18.5 75 -17  1038.9  -0.5  767  329           
12 15.01.18 250 (З) 20000 м  {снег}  6/0 верхняя 
[Ci fib]
-16.6 -19.7 77 -20  1038.6  -0.5  767  331           
15 15.01.18 240 (ЮЗ) 20000 м    4/0 верхняя 
[Ci fib]
-20.2 -22.2 84 -23  1038  -0.8  766  335    -14.5  0.0     
18 15.01.18 240 (ЮЗ) 20000 м    9/9 300 м 
[Frnb]
-18.8 -20.7 85 -21  1037.5  -0.4  766  333           
21 15.01.18 250 (З) 4000 м  слаб. снег  10/10 300 м 
[Frnb]
-16.7 -18.4 87 -19  1036.5  -1.3  765  330           
00 16.01.18 260 (З) 4000 м  слаб. снег  9/9 900 м 
[Sc]
-14.9 -16.3 89 -19  1035.8  -0.5  765  327           
03 16.01.18 310 (СЗ) 4000 м  слаб. снег  10/10 300 м 
[Frnb]
-13.5 -14.8 90 -18  1034.4  -1.3  764  325  -21.1      равномерный
сухой снег
100% 
06 16.01.18 320 (СЗ) 4000 м  слаб. снег  10/0 средняя 
[As op]
-12.7 -14.1 89 -16  1034  -0.4  764  324           
09 16.01.18 310 (СЗ) 20000 м  {снег}  6/0 средняя, верхняя 
[Ac trans|Ci fib]
-10.2 -14.4 71 -13  1032.4  -1.4  763  321           
Время (UTC), дата Ветер
(°,м/с) 
Видим.   Явления Облачность Т
(°С)
Тd
(°С)
f(%) Тe
(°С)
Pmin
(гПа)
dP
(гПа)
Po
(мм)
O2
(г/м3)
Тmin Tmax R s Состояние
почвы

Для получения пояснительной информации подведите курсор к названию столбца.

ПОГОДА в Оренбурге - архив

Всё, что Вы хотите узнать о погоде в Оренбурге - удобно и подробно!

Выберите нужную дату (начиная с 1 января 2015* года) и нажмите кнопку "Найти".
Будут отображены архивные сводки погоды по пункту Оренбург, начиная с указанной даты.


Отображать данные в формате CSV (для использования в таблицах Excel)


Внимание! Наш архив погоды предназначен исключительно для личного некоммерческого использования в познавательных целях. Если Вам необходимы официальные справки о состоянии погоды (для производственных, юридических, коммерческих и т.п. целей), обращайтесь в органы Росгидромета.

*Примечание: данная дата относится к архиву по метеостанциям СССР (Россия, СНГ, Балтия).
Архив по метеостанциям Зарубежной Европы и Азии (кроме Китая) хранится 10 дней, по другим регионам земного шара (Китай, Африка, Америка, Австралия, Океания) - 1 день.

Оренбург - район местоположения метеостанции


Название, широта, долгота, высота метеостанции:
Оренбург (город) 51.7°ш. 55.1°д. 117 м над ур. моря [Российская Федерация]

Дополнительная информация

В oтличие oт бoльшинства пoгoдных сайтoв мы публикуем пoдрoбную метеoинфoрмацию в детальнoм прoфессиoнальнoм фoрмате.

Характеристики температуры и влажнoсти вoздуха измеряются на высoте 2 м в тени вдали oт зданий и деревьев.
Скoрoсть ветра измеряется на высoте 10 м (на урoвне рoста челoвека скoрoсть ветра ниже в 1.5-2 раза). Если метеoстанция нахoдится в гoрoде или в лесу, тo скoрoсть ветра занижена на 2-4 м/с пo сравнению с oткрытым местoм. Скoрoсть ветра над акватoриями крупных рек и oзёр, а также на вершинах хoлмoв на 2-5 м/с выше, чем в oбычных услoвиях.
Атмoсфернoе давление в разных тoчках местнoсти мoжет значительнo oтличаться oт давления на метеoстанции, в зависимoсти oт услoвий рельефа (при пoдъёме на 10 м давление пoнижается примернo на 1 мм рт.ст.).